Other Surface Observations
Issued by NWS Tucson, AZ

Home | Current Version | Previous Version | Text Only | Print | Product List | Glossary On
Versions: 1 2 3 4 5 6 7 8 9 10 11 12 13 14 15 16 17 18 19 20 21 22 23 24 25 26 27 28 29 30 31 32 33 34 35 36 37 38 39 40 41 42 43 44 45 46 47 48 49 50
000
SXUS55 KTWC 280115
OSOTWC

WEATHER ROUNDUP FOR SOUTHEAST ARIZONA
NATIONAL WEATHER SERVICE TUCSON AZ
615 PM MST MON APR 27 2015

AZZ504>506-514-280215-
LOCATION       SKY/WX    TMP DP  RH WIND       PRES   REMARKS
TUCSON         MOSUNNY   79  34  19 CALM      29.90S
DAVIS-MONTHAN  SUNNY     78  37  22 W8        29.88S
CHILDRENS PARK N/A       80  35  20 NW4               PIMA CO DEQ
ALVERNON/22ND  N/A      N/A N/A N/A N/A               PIMA CO DEQ
CHERRY/GLENN   N/A      N/A N/A N/A N/A               PIMA CO DEQ
TANGERINE      N/A       80 N/A N/A NE8               PIMA CO DEQ
CONTL RANCH    N/A       82  38  21 NW7               PIMA CO DEQ
GRANT/1ST      N/A       81  35  19 NW3               PIMA CO DEQ
CRAYCROFT/22ND N/A      N/A N/A N/A N/A               PIMA CO DEQ
GOLFLINKS/KOLB N/A      N/A N/A N/A N/A               PIMA CO DEQ
AJO/12TH       N/A       80  34  19 N3                PIMA CO DEQ
SAGUARO EAST   N/A      N/A N/A N/A N/A               PIMA CO DEQ
FAIRGROUNDS    N/A       78 N/A N/A N5                PIMA CO DEQ
SAGUARO        N/A       82  36  19 SW5G12            *SABINO CYN
SAN CARLOS     N/A       79  39  24 SE6G12            *SAN CARLOS
GREEN VALLEY   N/A       78  34  20 N7                PIMA CO DEQ
HORSE CAMP CYN N/A       73  38  28 S4G13             *ARAVAIPA CYN
RINCON MTNS    N/A       49  34  56 E3                *NR MANNING CAMP
$$

AZZ509>511-280215-
LOCATION       SKY/WX    TMP DP  RH WIND       PRES   REMARKS
SAFFORD        SUNNY     75  36  24 SW6       29.90S
STRAY HORSE    N/A       58  27  30 SE4G10            *
TRAIL CABIN    N/A       65  27  24 E4G11             *N OF GRANVILLE
BLACK HILLS    N/A       74  39  28 NW4               *N OF FT THOMAS
DRY LAKE       N/A       55  39  54 SW4               *NATANES MTNS
NOON CREEK     N/A       69  34  27 SW4G10            *PINALENO MTNS
COLUMBINE      N/A       54  21  27 NW3G11            *PINALENO MTNS
GUTHRIE        N/A       60  35  39 SE6G14            *SW OF GUTHRIE
$$

AZZ502-503-513-280215-
LOCATION       SKY/WX    TMP DP  RH WIND       PRES   REMARKS
NOGALES        SUNNY     75  32  20 NE13G18   29.93R
SELLS          N/A       82  31  16 NE8G16            *
SASABE         N/A       77  35  22 N10G21            *ALTAR VLY
HOPKINS        N/A       59  31  35 N6G15             *SANTA RITA MTNS
CARR CYN       N/A       67  33  28 N3G10             *W OF HEREFORD
$$

AZZ507-508-512-280215-
LOCATION       SKY/WX    TMP DP  RH WIND       PRES   REMARKS
SIERRA VISTA   SUNNY     69  28  21 VRB6      29.99S
DOUGLAS        MOSUNNY   70  33  25 E8        29.97R
EMPIRE MTNS    N/A       68  34  28 NE6G15            *LAS CIENEGAS NCA
MULESHOE RANCH N/A       72  36  27 E4G12             *PRESERVE
HEADQUARTERS   N/A       68  32  26 NE3G14            *CHIRICAHUA MTNS
$$

.............................NOTES.............................
THIS IS AN AUTOMATED COLLECTIVE WITH MINIMAL QUALITY CONTROL.
PIMA CO DEQ SITES HAVE NONSTANDARD WIND SENSOR HEIGHTS.
PIMA CO DEQ SITES DO NOT REPORT WIND GUSTS.
* INDICATES WIND SENSORS LOCATED AT 20 FEET INSTEAD OF 33 FEET.
..............................KEY..............................
SKY/WX - SKY CONDITION/WEATHER
TMP    - TEMPERATURE IN FAHRENHEIT
DP     - DEWPOINT IN FAHRENHEIT
RH     - RELATIVE HUMIDITY IN PERCENT
WIND   - DIRECTION AND SPEED IN MILES PER HOUR (MPH)
VRB    - VARIABLE WIND DIRECTION
PRES   - MEAN SEA LEVEL PRESSURE IN INCHES OF MERCURY
         F - FALLING PRESSURE   R - RISING PRESSURE
         S - STEADY PRESSURE
VSB    - VISIBILITY IN MILES
HX     - HEAT INDEX IN FAHRENHEIT
WCI    - WIND CHILL INDEX IN FAHRENHEIT
N/A    - NOT AVAILABLE
AFB    - AIR FORCE BASE
         DAVIS-MONTHAN IS DAVIS-MONTHAN AIR FORCE BASE
CYN    - CANYON
MTNS   - MOUNTAINS
NCA    - NATIONAL CONSERVATION AREA
NR     - NEAR
VLY    - VALLEY
CONTL  - CONTINENTAL
PIMA CO DEQ - PIMA COUNTY DEPT OF ENVIRONMENTAL QUALITY



USA.gov is the U.S. government's official web portal to all federal, state and local government web resources and services.